Weather History for KAEX - February, 2005

Change the Weather History Date:

Wednesday, February 9, 2005

  Actual Average Record
Temperature  
Mean Temperature 54 °F 51 °F  
Max Temperature 61 °F 62 °F 84 °F (1957)
Min Temperature 46 °F 40 °F 15 °F (1933)
Degree Days  
Heating Degree Days 12 15  
Month to date heating degree days 137  
Since 1 July heating degree days 1428  
Growing Degree Days 4 (Base 50)    
Moisture  
Dew Point 54 °F    
Average Humidity 88    
Maximum Humidity 94    
Minimum Humidity 74    
Precipitation  
Precipitation 0.94 in 0.15 in 2.79 in (1980)
Month to date precipitation 1.38  
Year to date precipitation 6.60  
Snow  
Snow 0.00 in - T in (1973)
Month to date snowfall  
Since 1 July snowfall  
Snow Depth -    
Sea Level Pressure  
Sea Level Pressure 30.03 in    
Wind  
Wind Speed 6 mph (NNW)    
Max Wind Speed 15 mph    
Max Gust Speed 18 mph    
Visibility 6 miles    
Events Rain    
T = Trace of Precipitation, MM = Missing Value Source: NWS Daily Summary

Daily Weather History Graph

Daily Weather History Graph

Search for Another Location

Airport or City:

Trip Planner

Search our weather history database for the weather conditions in past years. The results will help you decide how hot, cold, wet, or windy it might be!

Date:

Astronomy

Feb. 09, 2005 Rise Set
Actual Time 6:56 AM CST 5:52 PM CST
Civil Twilight 6:31 AM CST 6:17 PM CST
Nautical Twilight 6:03 AM CST 6:46 PM CST
Astronomical Twilight 5:34 AM CST 7:14 PM CST
Moon 7:44 AM CST (2/9) 6:57 PM CST (2/9)
Length of Visible Light 11h 45m
Length of Day
10h 55m
New Moon, 1% of the Moon is Illuminated
Feb 9
New Moon
Feb 15
First Quarter
Feb 23
Full
Mar 3
Last Quarter
Mar 10
New

Hourly Weather History & Observations

Time (CST) Temp. Windchill Dew Point Humidity Pressure Visibility Wind Dir Wind Speed Gust Speed Precip Events Conditions
12:04 AM 60.8 °F - 57.2 °F 88% 29.98 in 1.8 mi NE 5.8 mph - 0.07 in Rain Heavy Rain
12:15 AM 60.8 °F - 57.2 °F 88% 29.97 in 1.8 mi ENE 3.5 mph - 0.16 in Rain Heavy Rain
12:38 AM 60.8 °F - 57.2 °F 88% 29.96 in 2.5 mi NE 5.8 mph - 0.36 in Rain Rain
12:53 AM 60.1 °F - 57.9 °F 93% 29.97 in 2.0 mi NNE 3.5 mph - 0.43 in Rain Heavy Rain
1:00 AM 60.8 °F - 57.2 °F 88% 29.95 in 1.8 mi East 4.6 mph - 0.07 in Rain Heavy Rain
1:16 AM 60.8 °F - 57.2 °F 88% 29.95 in 2.0 mi SE 4.6 mph - 0.14 in Rain Light Rain
1:25 AM 60.8 °F - 57.2 °F 88% 29.95 in 4.0 mi ESE 5.8 mph - 0.15 in Rain Light Rain
1:32 AM 60.8 °F - 57.2 °F 88% 29.94 in 2.5 mi ESE 6.9 mph - 0.17 in Rain Rain
1:53 AM 61.0 °F - 59.0 °F 93% 29.96 in 1.8 mi Calm Calm - 0.24 in Rain Heavy Rain
2:02 AM 60.8 °F - 59.0 °F 94% 29.95 in 3.0 mi NNE 3.5 mph - 0.02 in Rain Light Rain
2:10 AM 60.8 °F - 59.0 °F 94% 29.94 in 6.0 mi NW 4.6 mph - 0.02 in Rain Light Rain
2:26 AM 60.8 °F - 59.0 °F 94% 29.93 in 2.5 mi Calm Calm - 0.08 in Rain Heavy Rain
2:33 AM 60.8 °F - 59.0 °F 94% 29.93 in 2.0 mi Calm Calm - 0.14 in Rain Heavy Rain
2:43 AM 60.8 °F - 59.0 °F 94% 29.92 in 3.0 mi East 3.5 mph - 0.17 in Rain Rain
2:53 AM 61.0 °F - 59.0 °F 93% 29.94 in 2.5 mi ESE 3.5 mph - 0.20 in Rain Rain
3:21 AM 60.8 °F - 59.0 °F 94% 29.92 in 4.0 mi Calm Calm - 0.06 in Rain Light Rain
3:33 AM 60.8 °F - 59.0 °F 94% 29.92 in 7.0 mi Calm Calm - 0.06 in   Overcast
3:53 AM 61.0 °F - 59.0 °F 93% 29.93 in 4.0 mi NW 4.6 mph - 0.06 in Rain Light Rain
4:05 AM 60.8 °F - 59.0 °F 94% 29.92 in 5.0 mi NNW 8.1 mph - 0.01 in   Overcast
4:53 AM 61.0 °F - 59.0 °F 93% 29.94 in 10.0 mi WNW 3.5 mph - 0.01 in   Overcast
5:09 AM 60.8 °F - 57.2 °F 88% 29.93 in 5.0 mi WNW 4.6 mph - N/A   Overcast
5:53 AM 60.1 °F - 57.9 °F 93% 29.97 in 1.5 mi NW 9.2 mph - N/A   Overcast
6:24 AM 60.8 °F - 57.2 °F 88% 29.97 in 2.5 mi NW 8.1 mph - N/A   Overcast
6:34 AM 60.8 °F - 57.2 °F 88% 29.98 in 1.5 mi NW 5.8 mph - N/A   Overcast
6:43 AM 60.8 °F - 57.2 °F 88% 29.99 in 3.0 mi WNW 9.2 mph - N/A   Overcast
6:53 AM 60.1 °F - 57.9 °F 93% 30.00 in 10.0 mi NW 9.2 mph - N/A   Overcast
7:00 AM 60.8 °F - 57.2 °F 88% 30.00 in 10.0 mi WNW 10.4 mph - N/A   Overcast
7:53 AM 60.1 °F - 57.0 °F 90% 30.01 in 10.0 mi NW 8.1 mph - N/A   Overcast
8:53 AM 61.0 °F - 57.0 °F 87% 30.05 in 10.0 mi NNW 10.4 mph - N/A   Overcast
9:53 AM 59.0 °F - 55.9 °F 90% 30.06 in 8.0 mi NNW 9.2 mph - N/A   Overcast
10:53 AM 59.0 °F - 55.9 °F 90% 30.08 in 6.0 mi NNW 11.5 mph - N/A   Overcast
11:53 AM 57.9 °F - 54.0 °F 87% 30.08 in 7.0 mi NW 11.5 mph - N/A   Overcast
12:53 PM 57.0 °F - 52.0 °F 83% 30.08 in 7.0 mi NW 15.0 mph - N/A   Overcast
1:53 PM 55.9 °F - 51.1 °F 84% 30.07 in 7.0 mi NW 11.5 mph - N/A   Overcast
2:53 PM 55.0 °F - 50.0 °F 83% 30.09 in 9.0 mi NW 11.5 mph - N/A   Overcast
3:05 PM 55.4 °F - 48.2 °F 77% 30.08 in 10.0 mi NW 15.0 mph - N/A   Overcast
3:53 PM 54.0 °F - 48.9 °F 83% 30.10 in 10.0 mi NW 11.5 mph - N/A   Overcast
4:53 PM 53.1 °F - 48.0 °F 83% 30.12 in 10.0 mi NNW 10.4 mph - N/A   Overcast
5:53 PM 53.1 °F - 48.0 °F 83% 30.14 in 10.0 mi NNW 9.2 mph - N/A   Overcast
6:53 PM 52.0 °F - 45.0 °F 77% 30.17 in 10.0 mi NNW 11.5 mph - N/A   Overcast
7:53 PM 51.1 °F - 45.0 °F 80% 30.20 in 10.0 mi NNW 10.4 mph 18.4 mph N/A   Overcast
8:53 PM 50.0 °F - 44.1 °F 80% 30.23 in 10.0 mi NNW 9.2 mph - N/A   Overcast
9:02 PM 50.0 °F - 44.6 °F 82% 30.23 in 10.0 mi NNW 8.1 mph - N/A   Overcast
9:53 PM 48.9 °F - 41.0 °F 74% 30.26 in 10.0 mi North 10.4 mph - N/A   Clear
10:53 PM 46.9 °F - 39.9 °F 77% 30.28 in 10.0 mi NNW 10.4 mph - N/A   Clear
11:53 PM 46.0 °F 41.9 °F 39.0 °F 76% 30.30 in 10.0 mi North 8.1 mph - N/A   Clear